CAPE
51 42 48 30 32 31 31 22 40 50 20 27 17 22 33 52 58 7 0 0 2 0 0 0 0 0 0 0 0 0 0 0 5 4 5 3 1 0 1 0 6 0 0 0 3 0 0 1 0 4 3 3 6 5
38 55 53 34 39 43 38 41 41 42 24 26 31 26 39 47 53 34 4 0 0 3 0 0 0 0 0 0 0 0 0 3 34 3 4 2 3 1 1 7 0 32 16 12 5 30 17 8 10 9 3 6 12 15
56 58 59 35 35 47 54 44 48 33 21 23 29 33 37 35 42 50 0 0 3 6 2 0 0 0 0 0 0 0 0 0 6 4 4 8 10 5 2 4 15 8 0 3 1 21 12 25 18 22 17 5 4 7
58 63 39 41 33 46 44 54 51 20 18 13 16 15 25 37 43 57 1 1 0 4 2 0 0 0 0 0 0 0 0 0 16 4 6 3 1 1 6 23 10 1 0 2 8 5 21 13 23 14 7 9 3 3
73 58 49 46 56 70 60 50 44 12 15 13 15 13 25 49 48 13 0 1 0 2 0 0 0 0 0 0 0 0 0 0 0 10 11 5 0 1 34 2 1 4 3 2 7 9 7 19 17 7 3 3 3 0
60 63 55 33 50 56 77 59 47 9 5 5 8 23 34 43 43 2 0 2 0 7 22 0 0 0 0 0 0 0 0 0 0 24 13 8 0 6 16 0 5 5 4 4 4 16 5 5 7 8 5 1 0 0
58 68 58 47 52 43 54 55 31 2 1 2 4 24 28 32 1 1 0 0 3 1 3 0 0 0 0 0 0 0 0 0 43 14 0 2 4 11 2 0 9 9 5 4 3 10 3 1 2 0 4 0 0 0
49 71 50 41 20 11 53 61 30 5 1 4 12 26 16 33 25 2 0 3 4 4 9 1 0 0 0 0 0 0 0 0 8 2 6 9 3 1 1 2 0 0 2 2 3 4 3 3 0 0 0 0 0 1
60 60 54 37 38 38 48 43 15 9 14 21 37 44 33 27 14 15 1 2 0 1 10 2 0 0 0 1 0 2 0 0 0 16 13 11 0 0 0 0 0 0 0 0 0 1 0 0 0 0 0 0 1 3
55 63 52 42 57 47 34 9 12 15 30 33 47 13 0 1 25 2 2 1 2 5 7 2 0 0 9 4 3 0 0 0 4 0 0 4 0 2 0 0 0 0 0 0 0 0 0 2 1 1 1 1 1 2
49 43 25 25 28 36 19 7 15 17 31 29 0 1 0 0 0 1 0 1 6 3 3 0 1 4 0 1 0 0 2 10 3 0 4 0 0 3 1 0 0 0 0 0 0 1 2 2 2 0 1 1 1 1
39 22 13 17 23 16 12 24 14 19 10 0 1 3 2 6 2 1 2 5 0 0 1 3 0 0 1 0 0 2 2 3 4 2 0 0 1 2 0 0 0 0 0 0 1 1 2 1 0 0 0 0 1 0
8 14 24 22 16 32 17 19 25 6 6 1 3 0 5 0 0 0 0 1 0 0 1 11 8 0 4 2 1 4 1 0 1 0 0 0 2 1 0 0 0 0 0 0 0 0 0 0 0 0 0 0 0 0
18 29 28 21 23 19 18 22 1 3 0 0 1 0 0 0 0 0 0 0 0 0 0 1 2 0 0 2 1 1 0 1 0 0 0 1 2 2 0 0 0 0 0 0 0 0 0 0 0 0 0 0 0 0
17 11 9 13 11 15 19 0 0 0 0 0 0 0 0 0 0 0 0 1 0 0 0 0 0 0 0 0 0 0 0 0 0 0 0 1 0 0 0 0 0 0 0 0 0 0 0 0 0 0 0 0 0 0
10 12 13 44 14 0 0 0 0 0 0 0 0 0 0 0 0 0 0 1 0 0 0 0 0 0 0 0 0 0 0 0 0 0 0 0 0 0 0 0 0 0 0 0 0 0 0 0 0 0 0 0 0 0
1 3 3 0 0 0 0 0 0 0 0 0 0 0 0 0 0 0 0 0 0 0 0 0 0 0 0 0 0 0 0 0 0 0 0 0 0 0 0 0 0 0 0 0 0 0 0 0 0 0 0 0 0 0
7 0 0 0 0 0 0 0 0 0 0 0 0 0 0 0 0 0 0 0 0 0 0 0 0 0 0 0 0 0 0 0 0 0 0 0 0 0 0 0 0 0 0 0 0 0 0 0 0 0 0 0 0 0
16 2 1 0 0 0 0 0 0 0 0 0 0 0 0 0 0 0 0 0 0 0 0 0 0 0 0 0 0 0 0 0 0 0 0 0 0 0 0 0 0 0 0 0 0 0 0 0 0 0 0 0 1 1
6 0 0 0 0 0 0 0 0 0 0 0 0 0 0 0 0 0 0 0 0 0 0 0 0 0 0 0 0 0 0 0 0 0 0 0 0 0 0 0 0 0 0 0 0 0 0 0 0 0 0 1 4 2
0 0 0 0 0 0 0 0 0 0 0 0 0 0 0 0 0 0 0 0 0 0 0 0 0 0 0 0 0 0 0 0 0 0 0 0 0 0 0 0 0 0 0 0 0 0 0 0 0 0 0 0 0 0
0 0 0 0 0 0 0 0 0 0 0 1 0 0 0 0 0 0 0 0 0 0 0 0 0 0 0 0 0 0 0 0 0 0 0 0 0 0 0 0 0 0 0 0 0 0 0 0 0 0 0 0 0 0
0 0 0 0 0 0 0 0 0 0 0 0 0 0 0 0 0 0 0 0 0 0 0 0 0 0 0 0 0 0 0 0 0 0 0 0 0 0 0 0 0 0 0 0 0 0 0 0 0 0 0 0 0 0
0 0 0 0 0 0 0 0 0 0 0 0 0 0 0 0 0 0 0 0 0 0 0 0 0 0 0 0 0 0 0 0 0 0 0 0 0 0 0 0 0 0 0 0 0 0 0 0 0 0 0 0 0 0
0 0 0 0 0 0 0 0 0 0 0 0 0 0 0 0 0 0 0 0 0 0 0 0 0 0 0 0 0 0 0 0 0 0 0 0 0 0 0 0 0 0 0 0 0 0 0 0 0 0 0 0 0 0
0 0 0 0 0 0 0 0 0 0 0 0 0 0 0 0 0 0 0 0 0 0 0 0 0 0 0 0 0 0 0 0 0 0 0 0 0 0 0 0 0 0 0 0 0 0 0 0 0 0 0 0 0 0
0 0 0 0 0 0 0 0 0 0 0 0 0 0 0 0 0 0 0 0 0 0 0 0 0 0 0 0 0 0 0 0 0 0 0 0 0 0 0 0 0 0 0 0 0 0 0 0 0 0 0 0 0 0
0 0 0 0 0 0 0 0 0 0 0 0 0 0 0 0 0 0 0 0 0 0 0 0 0 0 0 0 0 0 0 0 0 0 0 0 0 0 0 0 0 0 0 0 0 0 0 0 0 0 0 0 0 0
0 0 0 0 0 0 0 0 0 0 0 0 0 0 0 0 0 0 0 0 0 0 0 0 0 0 0 0 0 0 0 0 0 0 0 0 0 0 0 0 0 0 0 0 0 0 0 0 0 0 0 0 0 0
0 0 0 0 0 0 0 0 0 0 0 0 0 0 0 0 0 0 0 0 0 0 0 0 0 0 0 0 0 0 0 0 0 0 0 0 0 0 0 0 0 0 0 0 0 0 0 0 0 0 0 0 0 0
0 0 0 0 0 0 0 0 0 0 0 0 0 0 0 0 0 0 0 0 0 0 0 0 0 0 0 0 0 0 0 0 0 0 0 0 0 0 0 0 0 0 0 0 0 0 0 0 0 0 0 0 0 0
0 0 0 0 0 0 0 0 0 0 0 0 0 0 0 0 0 0 0 0 0 0 0 0 0 0 0 0 0 0 0 0 0 0 0 0 0 0 0 0 0 0 0 0 0 0 0 0 0 0 0 0 0 0
0 0 0 0 0 0 0 0 0 0 0 0 0 0 0 0 0 0 0 0 0 0 0 0 0 0 0 0 0 0 0 0 0 0 0 0 0 0 0 0 0 0 0 0 0 0 0 0 0 0 0 0 0 0
CIN
-0 -0 -0 -0 -4 -1 -0 -1 -2 -0 -1 -1 -0 -0 -0 -2 -4 -3 -0 -0 -0 -0 -0 -0 -0 -0 -0 -0 -0 -0 -0 -2 -1 -0 -0 -0 -0 -0 -3 -0 -1 -0 -0 -0 -0 -0 -0 -0 -0 -0 -0 -0 -0 -0
-1 -1 -2 -0 -3 -0 -0 -0 -0 -0 -2 -3 -4 -1 -1 -2 -2 -0 -1 -0 -4 -0 -0 -0 -0 -0 -0 -0 -0 -0 -5 -0 -0 -0 -0 -0 -0 -0 -0 -0 -0 -0 -1 -0 -0 -0 -0 -0 -0 -0 -0 -0 -0 -0
-0 -0 -0 -0 -1 -1 -0 -0 -0 -0 -1 -1 -0 -1 -1 -2 -1 -1 -0 -0 -0 -0 -0 -0 -0 -0 -0 -0 -0 -0 -0 -0 -5 -1 -0 -0 -0 -0 -0 -0 -0 -0 -0 -1 -0 -0 -0 -0 -0 -0 -0 -0 -0 -0
-3 -0 -0 -1 -0 -0 -0 -0 -0 -1 -1 -2 -0 -0 -0 -0 -0 -0 -0 -0 -0 -0 -0 -0 -0 -0 -0 -0 -0 -0 -0 -0 -3 -2 -0 -0 -0 -5 -0 -0 -0 -0 -0 -0 -0 -0 -0 -0 -0 -0 -0 -0 -0 -0
-1 -1 -0 -0 -0 -0 -1 -1 -0 -0 -2 -0 -0 -0 -0 -3 -1 -1 -0 -1 -0 -5 -0 -0 -0 -0 -0 -0 -0 -0 -0 -0 -0 -1 -0 -1 -0 -2 -0 -3 -0 -0 -0 -0 -0 -0 -0 -0 -0 -0 -0 -0 -0 -0
-0 -0 -2 -0 -1 -1 -0 -1 -0 -1 -0 -0 -1 -0 -0 -2 -3 -0 -0 -0 -0 -7 -0 -0 -0 -0 -0 -0 -0 -0 -0 -0 -0 -1 -4 -6 -0 -2 -0 -0 -0 -0 -0 -0 -0 -0 -0 -0 -0 -0 -0 -0 -0 -0
-0 -0 -2 -0 -0 -0 -0 -0 -0 -0 -0 -0 -0 -0 -0 -5 -5 -1 -0 -0 -0 -8 -0 -0 -0 -0 -0 -0 -0 -0 -0 -0 -2 -1 -0 -5 -4 -0 -0 -0 -0 -0 -0 -0 -0 -0 -0 -0 -0 -0 -0 -0 -0 -0
-0 -0 -0 -0 -0 -2 -0 -0 -0 -0 -4 -0 -1 -0 -1 -0 -1 -1 -4 -0 -1 -0 -0 -0 -0 -0 -0 -0 -0 -0 -0 -0 -8 -10 -0 -1 -2 -0 -0 -0 -0 -0 -0 -0 -0 -0 -0 -0 -0 -0 -0 -0 -0 -0
-0 -0 -0 -0 -0 -0 -0 -0 -0 -0 -2 -0 -0 -1 -1 -0 -0 -0 -9 -1 -3 -0 -0 -0 -0 -0 -0 -0 -0 -0 -0 -0 -0 -0 -2 -2 -0 -0 -0 -0 -0 -0 -0 -0 -0 -0 -0 -0 -0 -0 -0 -0 -0 -0
-0 -0 -0 -0 -0 -0 -0 -0 -0 -0 -0 -0 -0 -0 -0 -0 -0 -0 -0 -0 -0 -0 -0 -0 -0 -0 -3 -1 -1 -0 -0 -0 -0 -0 -0 -0 -0 -0 -0 -0 -0 -0 -0 -0 -0 -0 -0 -0 -0 -0 -0 -0 -0 -0
-0 -0 -0 -0 -0 -0 -0 -0 -0 -0 -0 -0 -0 -0 -0 -1 -0 -0 -0 -0 -0 -0 -0 -0 -0 -0 -2 -2 -1 -0 -1 -1 -0 -0 -0 -0 -0 -0 -0 -0 -0 -0 -0 -0 -0 -0 -0 -0 -0 -0 -0 -0 -0 -0
-0 -0 -0 -0 -0 -0 -0 -0 -0 -0 -0 -0 -0 -0 -0 -0 -0 -0 -0 -0 -0 -0 -1 -0 -0 -0 -0 -0 -0 -2 -1 -1 -1 -0 -0 -0 -0 -0 -0 -0 -0 -0 -0 -0 -0 -0 -0 -0 -0 -0 -0 -0 -0 -0
-0 -0 -0 -0 -0 -0 -0 -0 -0 -0 -0 -2 -0 -0 -0 -0 -0 -0 -0 -0 -0 -0 -0 -0 -0 -0 -0 -0 -0 -0 -0 -0 -0 -0 -0 -0 -0 -0 -0 -0 -0 -0 -0 -0 -0 -0 -0 -0 -0 -0 -0 -0 -0 -0
-0 -0 -0 -0 -0 -0 -0 -0 -5 -0 -0 -0 -0 -0 -0 -0 -0 -0 -0 -0 -0 -0 -0 -2 -1 -0 -0 -0 -0 -0 -0 -0 -0 -0 -0 -0 -0 -0 -0 -0 -0 -0 -0 -0 -0 -0 -0 -0 -0 -0 -0 -0 -0 -0
-0 -0 -0 -0 -0 -0 -0 -0 -0 -0 -0 -0 -0 -0 -0 -0 -0 -0 -0 -0 -0 -0 -0 -0 -0 -0 -0 -0 -0 -0 -0 -0 -0 -0 -0 -0 -0 -0 -0 -0 -0 -0 -0 -0 -0 -0 -0 -0 -0 -0 -0 -0 -0 -0
-0 -0 -0 -0 -1 -0 -0 -0 -0 -0 -0 -0 -0 -0 -0 -0 -0 -0 -0 -0 -0 -0 -0 -0 -0 -0 -0 -0 -0 -0 -0 -0 -0 -0 -0 -0 -0 -0 -0 -0 -0 -0 -0 -0 -0 -0 -0 -0 -0 -0 -0 -0 -0 -0
-0 -0 -0 -0 -0 -0 -0 -0 -0 -0 -0 -0 -0 -0 -0 -0 -0 -0 -0 -0 -0 -0 -0 -0 -0 -0 -0 -0 -0 -0 -0 -0 -0 -0 -0 -0 -0 -0 -0 -0 -0 -0 -0 -0 -0 -0 -0 -0 -0 -0 -0 -0 -0 -0
-0 -0 -0 -0 -0 -0 -0 -0 -0 -0 -0 -0 -0 -0 -0 -0 -0 -0 -0 -0 -0 -0 -0 -0 -0 -0 -0 -0 -0 -0 -0 -0 -0 -0 -0 -0 -0 -0 -0 -0 -0 -0 -0 -0 -0 -0 -0 -0 -0 -0 -0 -0 -0 -0
-0 -4 -0 -0 -0 -0 -0 -0 -0 -0 -0 -0 -0 -0 -0 -0 -0 -0 -0 -0 -0 -0 -0 -0 -0 -0 -0 -0 -0 -0 -0 -0 -0 -0 -0 -0 -0 -0 -0 -0 -0 -0 -0 -0 -0 -0 -0 -0 -0 -0 -0 -0 -0 -0
-0 -0 -0 -0 -0 -0 -0 -0 -0 -0 -0 -0 -0 -0 -0 -0 -0 -0 -0 -0 -0 -0 -0 -0 -0 -0 -0 -0 -0 -0 -0 -0 -0 -0 -0 -0 -0 -0 -0 -0 -0 -0 -0 -0 -0 -0 -0 -0 -0 -0 -0 -0 -0 -0
-0 -0 -0 -0 -0 -0 -0 -0 -0 -0 -0 -0 -0 -0 -0 -0 -0 -0 -0 -0 -0 -0 -0 -0 -0 -0 -0 -0 -0 -0 -0 -0 -0 -0 -0 -0 -0 -0 -0 -0 -0 -0 -0 -0 -0 -0 -0 -0 -0 -0 -0 -0 -0 -0
-0 -0 -0 -0 -0 -0 -0 -0 -0 -0 -0 -0 -0 -0 -0 -0 -0 -0 -0 -0 -0 -0 -0 -0 -0 -0 -0 -0 -0 -0 -0 -0 -0 -0 -0 -0 -0 -0 -0 -0 -0 -0 -0 -0 -0 -0 -0 -0 -0 -0 -0 -0 -0 -0
-0 -0 -0 -0 -0 -0 -0 -0 -0 -0 -0 -0 -0 -0 -0 -0 -0 -0 -0 -0 -0 -0 -0 -0 -0 -0 -0 -0 -0 -0 -0 -0 -0 -0 -0 -0 -0 -0 -0 -0 -0 -0 -0 -0 -0 -0 -0 -0 -0 -0 -0 -0 -0 -0
-0 -0 -0 -0 -0 -0 -0 -0 -0 -0 -0 -0 -0 -0 -0 -0 -0 -0 -0 -0 -0 -0 -0 -0 -0 -0 -0 -0 -0 -0 -0 -0 -0 -0 -0 -0 -0 -0 -0 -0 -0 -0 -0 -0 -0 -0 -0 -0 -0 -0 -0 -0 -0 -0
-0 -0 -0 -0 -0 -0 -0 -0 -0 -0 -0 -0 -0 -0 -0 -0 -0 -0 -0 -0 -0 -0 -0 -0 -0 -0 -0 -0 -0 -0 -0 -0 -0 -0 -0 -0 -0 -0 -0 -0 -0 -0 -0 -0 -0 -0 -0 -0 -0 -0 -0 -0 -0 -0
-0 -0 -0 -0 -0 -0 -0 -0 -0 -0 -0 -0 -0 -0 -0 -0 -0 -0 -0 -0 -0 -0 -0 -0 -0 -0 -0 -0 -0 -0 -0 -0 -0 -0 -0 -0 -0 -0 -0 -0 -0 -0 -0 -0 -0 -0 -0 -0 -0 -0 -0 -0 -0 -0
-0 -0 -0 -0 -0 -0 -0 -0 -0 -0 -0 -0 -0 -0 -0 -0 -0 -0 -0 -0 -0 -0 -0 -0 -0 -0 -0 -0 -0 -0 -0 -0 -0 -0 -0 -0 -0 -0 -0 -0 -0 -0 -0 -0 -0 -0 -0 -0 -0 -0 -0 -0 -0 -0
-0 -0 -0 -0 -0 -0 -0 -0 -0 -0 -0 -0 -0 -0 -0 -0 -0 -0 -0 -0 -0 -0 -0 -0 -0 -0 -0 -0 -0 -0 -0 -0 -0 -0 -0 -0 -0 -0 -0 -0 -0 -0 -0 -0 -0 -0 -0 -0 -0 -0 -0 -0 -0 -0
-0 -0 -0 -0 -0 -0 -0 -0 -0 -0 -0 -0 -0 -0 -0 -0 -0 -0 -0 -0 -0 -0 -0 -0 -0 -0 -0 -0 -0 -0 -0 -0 -0 -0 -0 -0 -0 -0 -0 -0 -0 -0 -0 -0 -0 -0 -0 -0 -0 -0 -0 -0 -0 -0
-0 -0 -0 -0 -0 -0 -0 -0 -0 -0 -0 -0 -0 -0 -0 -0 -0 -0 -0 -0 -0 -0 -0 -0 -0 -0 -0 -0 -0 -0 -0 -0 -0 -0 -0 -0 -0 -0 -0 -0 -0 -0 -0 -0 -0 -0 -0 -0 -0 -0 -0 -0 -0 -0
-0 -0 -0 -0 -0 -0 -0 -0 -0 -0 -0 -0 -0 -0 -0 -0 -0 -0 -0 -0 -0 -0 -0 -0 -0 -0 -0 -0 -0 -0 -0 -0 -0 -0 -0 -0 -0 -0 -0 -0 -0 -0 -0 -0 -0 -0 -0 -0 -0 -0 -0 -0 -0 -0
-0 -0 -0 -0 -0 -0 -0 -0 -0 -0 -0 -0 -0 -0 -0 -0 -0 -0 -0 -0 -0 -0 -0 -0 -0 -0 -0 -0 -0 -0 -0 -0 -0 -0 -0 -0 -0 -0 -0 -0 -0 -0 -0 -0 -0 -0 -0 -0 -0 -0 -0 -0 -0 -0
-0 -0 -0 -0 -0 -0 -0 -0 -0 -0 -0 -0 -0 -0 -0 -0 -0 -0 -0 -0 -0 -0 -0 -0 -0 -0 -0 -0 -0 -0 -0 -0 -0 -0 -0 -0 -0 -0 -0 -0 -0 -0 -0 -0 -0 -0 -0 -0 -0 -0 -0 -0 -0 -0
Wind_Speed
17 16 15 15 13 14 12 11 13 12 9 12 11 11 11 11 10 6 3 10 5 3 4 6 4 4 2 1 3 5 3 3 4 6 4 3 3 3 3 3 3 3 2 1 1 2 3 12 5 6 2 7 9 11
15 15 17 16 13 15 15 13 14 12 8 12 14 11 12 11 12 12 3 8 4 2 3 2 4 7 8 5 3 2 0 3 3 3 4 3 2 3 5 3 5 3 5 3 4 4 7 12 12 11 10 8 9 9
18 16 16 16 14 15 15 15 14 12 9 13 14 13 15 16 15 12 4 7 3 1 4 2 8 7 7 10 5 1 1 2 2 1 1 2 3 3 3 3 3 3 8 2 2 7 11 11 11 11 11 12 12 12
19 16 16 17 16 15 15 14 13 10 11 14 13 15 18 17 15 12 4 6 4 2 2 5 1 5 2 8 8 6 2 0 1 1 1 2 1 3 2 3 2 3 6 5 2 5 2 12 11 10 12 10 11 12
18 18 17 17 16 16 15 14 14 11 14 15 15 17 17 12 11 6 6 7 5 2 2 4 4 2 1 7 9 6 4 1 1 2 1 1 1 2 1 1 2 3 3 2 4 6 6 7 9 10 11 10 11 10
14 17 18 16 16 15 15 13 13 11 15 14 15 17 12 9 8 4 1 3 7 4 0 3 2 2 4 5 7 7 4 2 2 2 2 1 2 1 2 1 4 4 5 7 3 3 9 9 10 9 9 9 10 11
16 17 18 17 16 14 15 13 13 13 15 15 15 13 10 10 5 3 3 4 14 4 2 2 2 0 4 4 2 2 1 1 1 1 2 2 0 1 1 2 5 6 6 6 7 1 7 12 6 8 8 8 10 11
17 19 18 18 16 17 16 14 14 14 15 14 15 11 8 10 6 3 1 13 8 4 2 2 3 1 4 2 3 1 2 1 1 2 2 2 2 1 2 5 5 4 7 7 7 8 9 7 7 9 8 6 8 9
17 19 17 18 17 17 16 17 14 16 16 17 12 7 3 4 4 3 16 15 3 2 2 2 3 3 2 2 3 2 2 2 1 3 3 2 2 4 4 8 5 5 4 3 3 7 7 9 8 8 8 8 8 8
18 18 18 17 16 16 17 16 16 17 16 11 4 4 3 4 18 16 2 3 3 3 3 4 1 2 2 2 2 3 1 2 3 4 3 3 1 5 6 7 6 6 6 6 5 4 4 6 7 8 9 8 7 6
19 19 18 19 18 18 17 18 18 17 12 4 4 3 1 18 4 3 4 4 4 4 5 4 6 5 2 3 3 2 2 2 3 3 5 3 2 5 7 7 6 7 7 7 7 7 7 6 6 6 8 8 7 7
19 18 19 20 19 19 20 18 20 12 5 9 7 5 3 3 3 5 5 4 5 7 6 6 6 3 3 2 2 3 3 3 4 4 2 3 2 9 8 7 7 7 7 8 8 8 8 8 8 9 8 8 7 7
17 19 19 19 20 20 19 21 29 15 19 5 3 5 4 2 5 7 9 5 5 6 6 7 7 4 2 3 2 4 5 4 2 1 2 1 7 7 7 7 7 7 8 8 9 8 9 10 9 8 8 7 7 7
19 19 18 20 17 22 23 17 29 15 7 3 4 7 3 3 5 4 4 5 3 5 9 9 4 4 3 4 1 4 2 2 2 3 3 5 8 8 7 6 6 6 7 8 8 9 9 9 8 6 5 4 5 6
14 17 19 22 24 18 21 22 14 5 3 3 3 3 4 2 1 1 1 3 2 8 6 5 3 2 1 2 1 3 2 3 3 2 3 6 9 8 7 7 7 7 5 6 5 6 6 5 6 6 4 4 5 4
23 23 9 23 29 23 21 14 3 2 4 4 6 4 2 2 3 2 3 3 2 3 3 3 4 3 2 3 3 5 4 5 3 3 5 8 8 7 7 7 6 6 6 5 5 4 4 4 5 5 3 4 4 4
11 3 25 25 24 15 11 5 3 5 4 4 3 1 2 2 3 2 2 2 2 2 3 3 5 4 4 2 3 3 3 1 4 6 5 6 8 8 6 6 6 6 6 5 4 4 4 4 4 3 4 2 3 3
6 14 25 25 13 5 3 5 5 5 6 3 4 3 2 3 3 3 2 2 1 2 2 3 3 3 4 5 3 3 3 3 4 6 5 5 6 6 6 8 5 6 6 5 4 4 4 4 3 2 3 4 3 3
15 10 15 8 6 5 4 4 4 5 3 2 2 2 3 3 4 2 2 3 2 3 5 3 3 2 2 1 3 4 7 5 6 5 4 4 6 6 6 5 5 5 6 5 5 4 3 3 2 2 3 4 4 3
20 9 10 9 5 5 5 3 3 4 3 1 2 3 3 3 1 2 4 4 3 3 5 3 1 1 1 2 2 7 6 8 9 8 5 3 3 5 5 6 5 5 4 3 3 2 2 2 1 2 2 2 3 3
10 4 9 4 4 6 5 3 4 2 3 3 2 2 3 2 2 3 3 3 5 3 2 1 1 2 2 3 6 8 8 7 6 4 6 6 3 4 4 3 4 4 3 3 3 2 1 0 1 1 2 2 2 2
2 3 3 5 5 4 4 3 4 3 3 3 2 2 3 2 2 2 1 5 3 0 1 2 4 6 7 7 5 6 7 8 7 7 8 9 5 4 3 3 4 3 3 2 2 2 2 1 2 2 2 2 1 2
6 4 5 4 7 6 1 1 4 2 4 3 2 3 2 2 1 1 4 2 1 0 1 3 4 7 10 7 9 8 6 9 7 6 6 6 4 3 4 3 2 3 3 2 2 3 2 1 2 2 2 1 1 1
7 6 5 4 5 4 2 3 2 3 3 2 3 3 1 2 1 3 3 0 0 1 4 8 8 9 8 8 5 5 5 6 7 6 5 6 5 3 3 3 3 2 1 3 3 2 2 2 0 1 1 1 1 2
8 8 5 5 3 5 5 3 3 4 3 1 4 1 2 2 3 1 3 3 3 4 5 4 5 5 6 4 5 5 3 5 7 7 2 3 5 4 4 3 3 2 1 3 2 2 1 1 1 1 1 1 2 3
9 5 5 1 2 4 3 4 3 4 4 3 1 1 1 3 3 2 2 4 3 4 4 6 6 7 5 3 6 4 3 3 6 5 2 3 3 3 3 3 2 1 1 1 2 2 3 2 2 3 2 2 2 2
6 3 2 3 2 3 4 3 3 4 4 3 2 2 3 3 2 2 0 1 2 3 3 3 5 6 7 6 5 4 3 4 5 6 5 5 3 2 1 2 3 2 2 3 2 1 1 3 3 3 2 1 2 3
3 3 4 4 5 4 5 4 4 2 1 1 2 3 4 5 3 1 1 1 3 7 6 6 6 6 6 6 6 6 7 7 8 8 7 7 5 4 4 4 4 6 4 2 3 3 2 2 2 2 1 1 1 0
4 3 3 6 5 6 5 3 1 2 3 1 4 2 2 2 1 2 2 2 4 7 7 7 5 6 7 6 4 3 5 5 6 5 3 2 1 1 1 2 3 3 2 2 2 3 4 3 2 1 1 1 2 1
3 2 5 4 5 3 2 0 0 1 3 2 2 3 3 3 3 3 2 3 4 6 4 6 5 5 7 6 6 4 2 1 1 3 4 3 3 4 3 3 3 2 1 2 1 1 4 3 2 2 2 2 2 2
2 3 5 4 3 1 2 1 1 2 3 3 3 4 2 1 2 4 4 3 4 6 8 6 4 2 6 6 5 5 2 1 2 2 3 4 5 5 4 3 2 2 2 2 2 2 1 1 1 1 2 3 3 3
4 3 4 4 0 2 3 3 2 3 4 4 3 2 3 3 3 3 3 2 3 3 3 5 6 4 2 3 3 2 5 6 5 5 7 6 5 4 4 3 2 2 3 3 2 1 1 1 1 2 3 4 5 5
3 3 3 4 3 2 2 4 5 2 4 3 3 1 1 3 3 0 2 4 0 4 4 4 5 5 5 5 6 6 7 6 8 9 9 8 7 6 3 2 2 2 3 3 2 1 1 1 2 3 4 4 5 6
Wind_Direction
223 221 215 214 229 249 233 229 244 241 230 262 264 261 266 267 255 165 149 172 151 192 266 204 210 211 271 105 323 314 354 12 345 18 357 7 1 18 309 20 2 40 24 71 134 240 300 358 19 31 29 40 37 45
229 219 211 220 221 239 238 233 242 236 232 265 271 269 272 270 258 195 155 175 157 173 268 271 250 237 218 196 175 323 55 23 8 353 4 306 358 1 358 44 1 60 17 334 353 1 28 47 65 37 51 61 26 52
221 227 222 218 221 229 235 230 242 229 243 262 255 263 277 277 265 209 130 142 102 241 268 250 241 248 203 215 170 208 290 167 245 194 292 303 352 342 16 3 337 79 19 25 337 48 30 39 53 51 48 55 45 38
221 220 219 219 221 228 230 225 236 228 249 260 262 269 270 264 250 218 151 156 135 139 262 275 271 260 219 169 177 183 172 241 194 300 357 348 318 5 343 336 24 359 342 337 337 28 121 46 43 55 52 56 63 53
226 218 219 222 223 224 226 230 224 233 249 256 262 274 275 265 230 168 136 179 168 168 203 280 287 259 142 167 165 155 175 184 321 289 221 250 259 290 177 110 59 17 12 356 47 346 80 47 46 53 57 51 51 56
214 227 215 221 227 223 227 224 217 233 251 258 266 274 274 226 177 118 80 190 193 136 222 289 306 46 58 119 145 162 157 179 222 242 272 249 234 210 278 123 90 84 74 27 32 45 90 76 45 62 64 61 59 64
228 223 216 217 219 226 231 233 226 235 246 251 272 272 266 166 149 160 192 185 171 119 163 266 290 67 114 118 82 104 110 191 170 295 256 266 130 337 269 210 118 85 78 52 29 290 90 47 54 36 74 80 75 71
231 221 220 218 221 229 227 236 229 237 239 246 262 262 256 200 153 153 94 126 111 93 224 218 266 308 173 125 109 141 115 123 208 242 254 212 142 239 225 118 95 50 112 55 49 59 87 95 72 58 52 62 64 68
230 219 224 219 229 225 233 225 230 233 237 249 243 256 244 213 169 143 145 140 109 148 206 172 186 222 141 105 108 131 131 158 252 227 223 223 188 224 118 137 107 63 74 354 90 92 86 75 64 56 55 51 66 63
223 221 219 225 225 231 228 234 231 235 237 242 239 192 192 198 126 109 77 123 155 179 198 207 129 163 180 146 109 134 166 196 206 217 119 217 179 106 97 97 99 79 53 19 165 70 69 79 69 56 56 54 55 58
222 218 224 225 231 231 235 234 235 238 231 191 170 164 137 164 94 140 172 173 156 183 183 175 185 155 204 158 142 216 167 193 239 184 200 191 227 154 124 100 87 82 77 71 77 78 69 63 73 82 72 67 66 67
220 225 229 229 237 239 239 244 239 223 199 169 136 111 102 180 147 157 157 154 208 196 160 159 170 164 152 173 118 173 200 194 247 128 168 245 95 134 131 112 90 81 86 83 82 85 82 81 78 84 83 80 76 77
226 232 235 236 238 243 251 229 260 167 144 95 112 133 191 150 150 174 174 197 184 158 170 161 151 133 133 213 164 166 203 231 106 171 231 84 140 135 127 117 98 90 92 90 82 84 85 77 74 87 94 91 90 77
231 238 241 244 240 242 241 222 136 132 73 118 162 147 203 161 228 187 160 153 197 138 153 149 114 138 160 159 177 186 144 163 175 229 219 151 150 130 126 122 113 86 81 85 82 87 91 95 88 74 75 94 101 91
248 258 256 257 244 227 143 118 100 73 129 103 82 137 172 223 195 132 148 110 61 138 133 102 80 116 98 132 194 121 136 231 237 223 141 145 142 134 123 123 124 116 106 96 100 99 96 98 96 90 72 87 99 106
257 251 196 141 126 110 113 115 97 100 65 77 48 89 118 143 97 110 96 103 28 127 88 69 115 122 175 160 155 202 172 221 181 162 137 133 128 125 128 126 119 120 116 115 104 103 99 93 89 90 77 63 66 75
79 13 116 112 109 96 78 87 74 63 92 60 46 74 114 79 92 80 47 52 340 93 128 121 137 179 110 108 201 207 208 134 137 126 120 125 137 136 125 120 121 123 124 126 125 132 132 134 136 130 114 89 99 93
99 122 117 111 104 84 52 41 73 69 72 44 76 8 44 12 60 45 12 350 32 106 122 135 125 145 188 174 209 169 123 105 87 120 121 121 121 123 131 133 137 138 144 151 147 145 145 164 176 183 169 171 161 153
128 123 100 118 123 102 81 45 51 86 77 103 113 88 73 79 36 18 3 37 72 77 103 62 95 172 195 164 142 139 139 141 131 113 96 91 122 129 129 125 134 143 150 151 167 175 181 204 271 265 213 200 227 198
106 92 70 76 66 87 83 48 54 76 91 100 63 64 79 75 89 18 19 22 47 47 46 46 123 201 190 180 166 130 122 124 124 118 115 116 118 131 148 154 161 156 152 166 166 163 160 156 72 37 22 300 261 218
83 356 42 44 54 61 84 99 65 99 117 78 111 70 75 34 37 31 33 351 63 49 106 184 116 50 86 124 109 118 123 132 129 132 143 140 150 150 143 144 148 144 144 160 163 156 200 186 95 60 52 60 43 81
118 143 77 32 78 65 72 17 110 129 78 117 102 83 83 67 35 25 16 49 58 75 147 129 123 123 112 105 96 104 114 104 104 103 95 119 132 138 149 165 157 151 136 152 161 155 133 118 126 107 108 95 115 104
102 57 50 53 73 57 120 347 81 83 105 132 92 83 52 76 76 116 76 75 119 192 152 98 96 98 105 108 102 94 102 119 110 111 111 106 103 107 115 120 138 143 148 143 137 132 117 102 128 133 127 149 160 168
42 56 64 74 82 110 54 34 79 91 89 100 101 108 140 145 103 54 94 88 247 119 108 122 123 113 106 98 104 110 97 110 110 99 107 121 117 89 97 104 100 92 75 128 133 124 123 120 135 154 177 215 246 274
74 353 66 25 8 81 70 40 29 68 99 143 93 94 186 128 94 100 164 164 156 139 134 128 120 129 125 115 112 103 89 148 131 120 79 122 116 108 94 83 79 66 133 140 163 182 165 191 212 226 206 246 274 284
70 335 56 52 331 98 168 105 155 153 121 92 135 64 61 104 92 182 178 166 151 157 157 147 138 117 108 125 128 137 155 131 116 108 113 158 132 144 163 166 166 142 54 134 145 202 215 212 231 227 238 248 249 274
75 344 24 35 344 84 64 43 67 87 86 128 168 102 82 103 205 250 99 189 143 164 146 130 131 124 134 118 93 79 79 68 79 100 99 80 67 38 155 167 195 129 125 107 111 146 236 218 221 226 256 246 256 243
125 32 109 334 53 21 108 67 57 75 137 349 93 65 125 166 178 322 321 354 151 107 84 62 56 100 112 110 117 117 88 94 93 96 95 76 60 57 69 76 76 95 95 90 103 106 87 110 144 169 219 299 321 205
42 343 78 41 41 42 40 79 111 40 351 65 106 125 148 64 332 298 358 74 119 112 104 100 59 84 82 75 60 73 124 131 121 116 107 127 162 146 95 102 97 84 90 113 114 116 118 98 127 87 60 338 6 344
359 21 86 60 67 44 285 74 27 317 23 64 85 94 66 38 6 3 58 72 117 120 117 122 132 136 138 131 129 102 56 20 63 127 149 180 201 136 146 133 115 95 101 114 98 63 40 52 66 57 32 30 19 349
15 66 72 63 95 249 236 320 328 90 44 46 11 88 102 100 69 35 48 60 99 113 117 116 98 98 132 143 143 129 123 65 104 117 101 104 115 125 128 121 110 116 101 94 90 89 94 65 36 15 356 346 343 330
34 75 118 106 194 283 38 58 54 66 4 46 23 42 24 58 61 14 6 18 107 112 102 125 134 151 147 104 92 80 83 115 117 114 112 109 108 112 111 100 102 102 92 88 87 91 61 12 312 310 314 314 317 317
67 61 57 89 59 356 307 83 27 50 33 52 35 86 97 121 131 199 7 14 126 139 131 108 95 100 103 99 103 98 90 95 100 97 94 98 110 115 108 104 100 88 92 92 81 39 25 316 308 301 301 302 305 306